Location: Limoges
(45.8354°N, 1.2645°E)
Time: 13:02:02
(UTC+01:00)

Tiros 1 - All Passes

Search period start: 22 February 2024 00:00
Search period end: 03 March 2024 00:00
Orbit: 625 x 658 km, 48.4° (Epoch: 21 February)

Date Brightness Start Highest point End Pass type
(mag) Time Alt. Az. Time Alt. Az. Time Alt. Az.
22 Feb - 00:54:33 10° W 00:59:21 74° NNW 01:04:08 10° ENE night (unlit)
22 Feb - 02:36:58 10° WNW 02:41:45 67° N 02:46:29 10° E night (unlit)
22 Feb - 04:19:12 10° WNW 04:23:53 61° SSW 04:28:32 10° SE visible
22 Feb - 06:02:21 10° W 06:05:19 16° SW 06:08:13 10° S visible
22 Feb - 21:56:14 10° S 21:59:56 23° SE 22:03:39 10° E night (unlit)
22 Feb - 23:36:46 10° WSW 23:41:33 75° SSE 23:46:19 10° ENE night (unlit)
23 Feb - 01:19:02 10° W 01:23:48 64° N 01:28:32 10° E night (unlit)
23 Feb - 03:01:22 10° WNW 03:06:10 84° NNE 03:10:54 10° ESE night (unlit)
23 Feb - 04:43:42 10° W 04:48:01 35° SW 04:52:16 10° SSE visible
23 Feb - 22:19:27 10° SW 22:23:56 41° SSE 22:28:26 10° ENE night (unlit)
24 Feb - 00:01:05 10° WSW 00:05:53 78° NNW 00:10:40 10° ENE night (unlit)
24 Feb - 01:43:30 10° WNW 01:48:16 65° N 01:53:00 10° E night (unlit)
24 Feb - 03:25:44 10° WNW 03:30:28 67° SSW 03:35:09 10° SE night (unlit)
24 Feb - 05:08:40 10° W 05:11:57 19° SW 05:15:12 10° S visible
24 Feb - 21:03:06 10° S 21:06:34 20° SE 21:10:03 10° E visible
24 Feb - 22:43:20 10° WSW 22:48:06 70° SSE 22:52:52 10° ENE night (unlit)
25 Feb - 00:25:33 10° W 00:30:19 65° N 00:35:05 10° ENE night (unlit)
25 Feb - 02:07:54 10° WNW 02:12:42 80° NNE 02:17:28 10° ESE night (unlit)
25 Feb - 03:50:11 10° WNW 03:54:36 39° SW 03:58:59 10° SE night (unlit)
25 Feb - 21:26:08 10° SSW 21:30:31 37° SE 21:34:56 10° ENE visible
25 Feb - 23:07:36 10° WSW 23:12:24 82° NNW 23:17:13 10° ENE night (unlit)
26 Feb - 00:50:01 10° WNW 00:54:47 64° N 00:59:32 10° E night (unlit)
26 Feb - 02:32:15 10° WNW 02:37:01 73° SSW 02:41:45 10° ESE night (unlit)
26 Feb - 04:15:01 10° W 04:18:35 21° SW 04:22:07 10° S night (unlit)
26 Feb - 20:10:01 10° S 20:13:11 18° SE 20:16:23 10° E visible
26 Feb - 21:49:55 10° SW 21:54:39 64° SSE 21:59:24 10° ENE visible
26 Feb - 23:32:03 10° W 23:36:50 66° N 23:41:36 10° ENE night (unlit)
27 Feb - 01:14:26 10° WNW 01:19:14 76° NNE 01:23:59 10° E night (unlit)
27 Feb - 02:56:41 10° WNW 03:01:11 43° SSW 03:05:40 10° SE night (unlit)
27 Feb - 20:32:50 10° SSW 20:37:06 33° SE 20:41:23 10° E visible
27 Feb - 22:14:08 10° WSW 22:18:56 86° NNW 22:23:44 10° ENE visible
27 Feb - 23:56:32 10° W 00:01:17 64° N 00:06:03 10° E night (unlit)
28 Feb - 01:38:46 10° WNW 01:43:34 78° SSW 01:48:19 10° ESE night (unlit)
28 Feb - 03:21:24 10° W 03:25:11 24° SW 03:28:57 10° SSE night (unlit)
28 Feb - 19:16:58 10° S 19:19:48 16° SE 19:22:38 10° E visible
28 Feb - 20:56:31 10° SW 21:01:12 59° SSE 21:05:54 10° ENE visible
28 Feb - 22:38:33 10° W 22:43:19 68° N 22:48:06 10° ENE visible
29 Feb - 00:20:55 10° WNW 00:25:44 73° NNE 00:30:30 10° E night (unlit)
29 Feb - 02:03:09 10° WNW 02:07:45 48° SSW 02:12:18 10° SE night (unlit)
29 Feb - 03:47:18 10° WSW 03:48:59 12° SW 03:50:41 10° SSW night (unlit)
29 Feb - 19:39:32 10° SSW 19:43:41 30° SE 19:47:51 10° E visible
29 Feb - 21:20:39 10° WSW 21:25:26 89° SSE 21:30:16 10° ENE visible
29 Feb - 23:03:01 10° W 23:07:47 63° N 23:12:31 10° E visible
01 Mar - 00:45:17 10° WNW 00:50:05 84° SSW 00:54:51 10° ESE night (unlit)
01 Mar - 02:27:47 10° W 02:31:46 27° SW 02:35:44 10° SSE night (unlit)
01 Mar - 18:24:03 10° SSE 18:26:25 14° SE 18:28:47 10° ESE daylight
01 Mar - 20:03:06 10° SW 20:07:44 53° SSE 20:12:23 10° ENE visible
01 Mar - 21:45:02 10° W 21:49:49 70° N 21:54:36 10° ENE visible
01 Mar - 23:27:26 10° WNW 23:32:13 70° N 23:37:00 10° E visible
02 Mar - 01:09:38 10° WNW 01:14:18 53° SSW 01:18:56 10° SE night (unlit)
02 Mar - 02:53:16 10° WSW 02:55:36 14° SW 02:57:57 10° SSW night (unlit)
02 Mar - 18:46:17 10° SSW 18:50:15 27° SE 18:54:15 10° E daylight
02 Mar - 20:27:10 10° WSW 20:31:56 84° SSE 20:36:45 10° ENE visible
02 Mar - 22:09:29 10° W 22:14:15 63° N 22:19:01 10° E visible
